This is the latest recevied weather packets stored in our database for station/object W3JBS-2. If no packets are shown the sender has not sent any weather packets the latest 10 day(s).
| Time | Temp. | Humidity | Pressure | Rain* | Wind** | Luminosity | Snow |
|---|---|---|---|---|---|---|---|
| 1777804619 | 6.11° C | 68% | 1012.9 hPa | 0 mm | - | 1782 W/m² | - |
| 1777803719 | 6.11° C | 69% | 1012.6 hPa | 0 mm | - | 1782 W/m² | - |
| 1777802819 | 6.11° C | 69% | 1012.4 hPa | 0 mm | - | 1782 W/m² | - |
| 1777801918 | 6.11° C | 70% | 1012.3 hPa | 0 mm | - | 1782 W/m² | - |
| 1777801018 | 6.11° C | 70% | 1012.1 hPa | 0 mm | - | 1782 W/m² | - |
| 1777800119 | 5.56° C | 72% | 1012 hPa | 0 mm | - | 1782 W/m² | - |
| 1777799219 | 5.56° C | 73% | 1011.9 hPa | 0 mm | - | 1782 W/m² | - |
| 1777798319 | 5.56° C | 74% | 1011.9 hPa | 0 mm | - | - | - |
| 1777797419 | 5° C | 76% | 1011.8 hPa | 0 mm | - | - | - |
| 1777796518 | 4.44° C | 76% | 1011.7 hPa | 0 mm | - | - | - |
| 1777795618 | 3.89° C | 76% | 1011.5 hPa | 0 mm | - | - | - |
| 1777794719 | 4.44° C | 72% | 1011.1 hPa | 0 mm | - | - | - |
| 1777793819 | 5° C | 71% | 1011 hPa | 0 mm | - | - | - |
| 1777792919 | 6.11° C | 67% | 1010.9 hPa | 0 mm | - | - | - |
| 1777792019 | 6.11° C | 67% | 1010.9 hPa | 0 mm | - | - | - |
| 1777791118 | 6.67° C | 67% | 1010.8 hPa | 0 mm | - | - | - |
| 1777790218 | 6.67° C | 66% | 1010.8 hPa | 0 mm | - | - | - |
| 1777789318 | 6.67° C | 65% | 1010.8 hPa | 0 mm | - | - | - |
| 1777788419 | 7.22° C | 64% | 1010.9 hPa | 0 mm | - | - | - |
| 1777787519 | 7.78° C | 62% | 1011.1 hPa | 0 mm | - | - | - |
| 1777786619 | 7.78° C | 62% | 1011.2 hPa | 0 mm | - | - | - |
| 1777785718 | 8.33° C | 61% | 1011.3 hPa | 0 mm | - | - | - |
| 1777784818 | 8.33° C | 61% | 1011.4 hPa | 0 mm | - | - | - |
| 1777783919 | 8.33° C | 60% | 1011.6 hPa | 0 mm | - | - | - |
| 1777783019 | 8.33° C | 59% | 1011.8 hPa | 0 mm | - | - | - |
* Rain latest hour (hover to see other rain measurements)
** Current wind speed in m/s (hover to see current wind gust speed)